[Date Prev][Date Next][Thread Prev][Thread Next] - [Date Index][Thread Index][Author Index]

2 Line ISS Keps 3-22



ISS
1 25544U 98067A   05081.33373843  .00020617  00000-0  16375-3 0   664
2 25544 051.6482 345.2750 0003508 220.2130 286.8844 15.71221665362029
----
Via the sarex mailing list at AMSAT.ORG courtesy of AMSAT-NA.
To unsubscribe, send "unsubscribe sarex" to Majordomo@amsat.org



AMSAT Top AMSAT Home